(199509) = 2006 DV122

Discovered at Catalina on 2006-02-24 by CSS.

Orbit

Orbit type: Main Belt

Note: WebGL enabled browser required.

epoch2024-03-31.0
epoch JD2460400.5
perihelion date2021-06-29.48884
perihelion JD2459394.98884
argument of perihelion (°)207.26176
ascending node (°)42.76435
inclination (°)15.97016
eccentricity0.0956405
perihelion distance (AU)2.5729651
Tisserand w.r.t. Jupiter3.2
ΔV w.r.t. Earth (km/sec)11.2
semimajor axis (AU)2.8450687
mean anomaly (°)206.51500
mean daily motion (°/day)0.20538310
aphelion distance (AU)3.117
period (years)4.8
P-vector [x]-0.35359537
P-vector [y]-0.80025511
P-vector [z]-0.48431608
Q-vector [x]0.91655387
Q-vector [y]-0.19300909
Q-vector [z]-0.35025204
absolute magnitude15.22
phase slope0.15
uncertainty0
referenceMPEC 2024-F62
observations used820
oppositions17
arc length (days)8480
first opposition used2000
last opposition used2024
residual rms (arc-secs)0.80
perturbers coarse indicatorM-v
perturbers precise indicator003Ek
first observation date used2000-12-31.0
last observation date used2024-03-20.0
computer nameMPCLINUX
JD of orbit computation2456671.038957
perihelion JD uncertainty (days)3.4510E-04
argument of perihelion uncertainty (°)7.0568E-05
ascending node uncertainty (°)2.5742E-05
inclination uncertainty (°)1.4645E-05
eccentricity uncertainty 1.0763E-07
perihelion distance uncertainty (AU)3.0925E-07
Minimum Orbit Intersection Distances (in AU)
for orbit epoch: 2460400.5, reference: E2024-F62
Mercury2.10901
Venus1.85551
Earth1.56951
Mars1.02624
Jupiter1.89915
Saturn6.00938
Uranus15.6982
Neptune26.7465

Observations

845 total observations over interval: 2000 12 31.49106 – 2024 03 20.125138
These data are available for download (format description).

Date (UT) J2000 RA J2000 Dec Magn Location Ref
2000 12 31.49106 11 27 41.95 +24 56 19.4 19.7 R 699 – Lowell Observatory-LONEOS MPS 169196
2000 12 31.50929 11 27 42.38 +24 56 24.8   699 – Lowell Observatory-LONEOS MPS 169196
2000 12 31.52759 11 27 42.78 +24 56 28.1   699 – Lowell Observatory-LONEOS MPS 169196
2000 12 31.54582 11 27 43.01 +24 56 31.9   699 – Lowell Observatory-LONEOS MPS 169196
2001 03 22.20524 10 41 49.06 +30 35 13.3   725 – Fair Oaks Ranch MPS 169196
2001 03 22.25647 10 41 46.40 +30 35 09.4   725 – Fair Oaks Ranch MPS 169196
2003 09 22.33872 01 16 14.65 -06 21 10.7 19.6   644 – Palomar Mountain/NEAT MPS 169196
2003 09 22.40221 01 16 11.39 -06 21 20.2 19.1   644 – Palomar Mountain/NEAT MPS 169196
2003 09 22.46913 01 16 08.00 -06 21 29.5 19.3   644 – Palomar Mountain/NEAT MPS 169196
2003 10 18.25313 00 52 37.53 -06 56 19.0 19.8 R 699 – Lowell Observatory-LONEOS MPS 169196
2003 10 18.26641 00 52 36.75 -06 56 19.3   699 – Lowell Observatory-LONEOS MPS 169196
2003 10 18.27971 00 52 36.02 -06 56 18.1   699 – Lowell Observatory-LONEOS MPS 169196
2003 10 18.29295 00 52 35.26 -06 56 18.6   699 – Lowell Observatory-LONEOS MPS 169196
2006 02 09.42033 12 36 45.13 +16 21 24.2 19.2 R 644 – Palomar Mountain/NEAT MPS 169196
2006 02 09.44233 12 36 44.76 +16 21 29.9 19.9 R 644 – Palomar Mountain/NEAT MPS 169196
2006 02 09.46804 12 36 44.31 +16 21 36.3 19.5 R 644 – Palomar Mountain/NEAT MPS 169196
2006 02 24.39174 12 30 06.76 +17 29 35.8 19.4 V 703 – Catalina Sky Survey MPS 166301
2006 02 24.40045 12 30 06.44 +17 29 39.3 19.5 V 703 – Catalina Sky Survey MPS 166301
2006 02 24.40919 12 30 06.08 +17 29 42.0 19.2 V 703 – Catalina Sky Survey MPS 166301
2006 02 24.41799 12 30 05.72 +17 29 44.3 19.3 V 703 – Catalina Sky Survey MPS 166301
2006 02 28.40919 12 27 23.25 +17 47 52.5 19.2 V 703 – Catalina Sky Survey MPS 166301
2006 02 28.41677 12 27 22.89 +17 47 55.2 19.4 V 703 – Catalina Sky Survey MPS 166301
2006 02 28.42432 12 27 22.57 +17 47 57.6 19.4 V 703 – Catalina Sky Survey MPS 166301
2006 02 28.43187 12 27 22.24 +17 47 58.9 19.1 V 703 – Catalina Sky Survey MPS 166301
2006 03 23.36380 12 06 54.51 +18 59 35.3   704 – Lincoln Laboratory ETS, New Mexico MPS 406899
2006 03 25.24531 12 05 04.48 +19 01 31.9 18.7 V 703 – Catalina Sky Survey MPS 168868
2006 03 25.25293 12 05 03.98 +19 01 33.4 18.9 V 703 – Catalina Sky Survey MPS 168868
2006 03 25.26059 12 05 03.58 +19 01 32.4 18.8 V 703 – Catalina Sky Survey MPS 168868
2006 03 25.26824 12 05 03.04 +19 01 33.8 19.4 V 703 – Catalina Sky Survey MPS 168868
2006 04 02.24891 11 57 26.82 +19 01 11.8 19.0 V 703 – Catalina Sky Survey MPS 168868
2006 04 02.25742 11 57 26.31 +19 01 12.5 18.9 V 703 – Catalina Sky Survey MPS 168868
2006 04 02.26593 11 57 25.81 +19 01 12.0 19.0 V 703 – Catalina Sky Survey MPS 168868
2006 04 02.27443 11 57 25.38 +19 01 11.8 19.0 V 703 – Catalina Sky Survey MPS 168868
2006 04 25.18454 11 40 54.19 +17 41 50.2 19.2 V 703 – Catalina Sky Survey MPS 169931
2006 04 25.19381 11 40 53.90 +17 41 46.6 19.5 V 703 – Catalina Sky Survey MPS 169931
2006 04 25.20293 11 40 53.54 +17 41 44.4 19.7 V 703 – Catalina Sky Survey MPS 169931
2006 04 25.21214 11 40 53.29 +17 41 41.0 19.0 V 703 – Catalina Sky Survey MPS 169931
2007 07 15.51125 19 43 52.96 -45 25 54.4 19.0 V E12 – Siding Spring Survey MPS 212000
2007 07 15.52009 19 43 52.35 -45 25 56.7 19.2 V E12 – Siding Spring Survey MPS 212000
2007 08 09.43706 19 19 16.10 -45 37 32.3 19.1 V E12 – Siding Spring Survey MPS 212630
2007 08 09.44369 19 19 15.78 -45 37 31.9 19.4 V E12 – Siding Spring Survey MPS 212630
2007 08 09.45035 19 19 15.63 -45 37 30.3 19.9 V E12 – Siding Spring Survey MPS 212630
2007 08 09.45705 19 19 15.16 -45 37 29.8 19.4 V E12 – Siding Spring Survey MPS 212630
2008 09 23.29666 02 15 55.06 +05 13 34.3 19.3   704 – Lincoln Laboratory ETS, New Mexico MPS 256747
2008 09 23.30859 02 15 54.53 +05 13 32.8 20.4   704 – Lincoln Laboratory ETS, New Mexico MPS 256747
2008 09 23.32055 02 15 54.04 +05 13 33.5 19.9   704 – Lincoln Laboratory ETS, New Mexico MPS 256747
2008 09 23.34443 02 15 53.22 +05 13 31.8 19.9   704 – Lincoln Laboratory ETS, New Mexico MPS 256747
2008 09 23.35223 02 15 53.02 +05 13 31.7 20.8 R 683 – Goodricke-Pigott Observatory, Tucson MPS 256747
2008 09 23.36563 02 15 52.42 +05 13 30.3 20.0 R 683 – Goodricke-Pigott Observatory, Tucson MPS 256747
2008 09 23.37903 02 15 51.76 +05 13 29.4 20.2 R 683 – Goodricke-Pigott Observatory, Tucson MPS 256747
2008 09 23.40624 02 15 50.79 +05 13 28.7 20.1 V G96 – Mt. Lemmon Survey MPS 256747
2008 09 23.41267 02 15 50.50 +05 13 28.4 20.1 V G96 – Mt. Lemmon Survey MPS 256747
2008 09 23.41898 02 15 50.25 +05 13 28.2 19.9 V G96 – Mt. Lemmon Survey MPS 256747
2008 09 23.42528 02 15 50.04 +05 13 28.0 20.0 V G96 – Mt. Lemmon Survey MPS 256747
2008 09 29.35411 02 11 46.28 +05 08 11.9 20.6 V 703 – Catalina Sky Survey MPS 257992
2008 09 29.36506 02 11 45.88 +05 08 13.4 20.9 V 703 – Catalina Sky Survey MPS 257992
2008 09 29.37595 02 11 45.27 +05 08 12.3 20.3 V 703 – Catalina Sky Survey MPS 257992
2008 09 29.38682 02 11 44.77 +05 08 13.4 20.7 V 703 – Catalina Sky Survey MPS 257992
2008 09 30.28904 02 11 04.12 +05 07 17.2 19.4   704 – Lincoln Laboratory ETS, New Mexico MPS 257992
2008 09 30.31346 02 11 03.09 +05 07 15.7 19.9   704 – Lincoln Laboratory ETS, New Mexico MPS 257992
2008 09 30.32587 02 11 02.47 +05 07 14.8 19.7   704 – Lincoln Laboratory ETS, New Mexico MPS 257992
2008 09 30.33818 02 11 01.85 +05 07 14.9 19.6   704 – Lincoln Laboratory ETS, New Mexico MPS 257992
2008 10 01.32650 02 10 16.51 +05 06 13.6 20.6 R 683 – Goodricke-Pigott Observatory, Tucson MPS 259298
2008 10 01.33990 02 10 15.70 +05 06 12.4 20.8 R 683 – Goodricke-Pigott Observatory, Tucson MPS 259298
2008 10 07.30672 02 05 21.40 +04 59 56.5 19.7 R 683 – Goodricke-Pigott Observatory, Tucson MPS 259298
2008 10 07.32011 02 05 20.68 +04 59 53.2 19.4 R 683 – Goodricke-Pigott Observatory, Tucson MPS 259298
2008 10 07.33728 02 05 19.79 +04 59 53.9 19.7 V 691 – Steward Observatory, Kitt Peak-Spacewatch MPS 259298
2008 10 07.35489 02 05 18.84 +04 59 52.6 19.9 V 691 – Steward Observatory, Kitt Peak-Spacewatch MPS 259298
2008 10 07.37250 02 05 17.86 +04 59 51.6 20.1 V 691 – Steward Observatory, Kitt Peak-Spacewatch MPS 259298
2008 10 08.30340 02 04 29.44 +04 58 51.0 20.1 R 683 – Goodricke-Pigott Observatory, Tucson MPS 259298
2008 10 08.31678 02 04 28.66 +04 58 49.9 19.7 R 683 – Goodricke-Pigott Observatory, Tucson MPS 259298
2008 10 08.38887 02 04 24.78 +04 58 46.2 19.3 V 703 – Catalina Sky Survey MPS 259298
2008 10 08.39536 02 04 24.42 +04 58 46.3 19.7 V 703 – Catalina Sky Survey MPS 259298
2008 10 08.40194 02 04 24.13 +04 58 45.5 19.8 V 703 – Catalina Sky Survey MPS 259298
2008 10 08.40866 02 04 23.84 +04 58 45.6 20.4 V 703 – Catalina Sky Survey MPS 259298
2008 10 09.30004 02 03 36.71 +04 57 47.3 20.6 R 683 – Goodricke-Pigott Observatory, Tucson MPS 259298
2008 10 09.31344 02 03 35.98 +04 57 47.9 19.4 R 683 – Goodricke-Pigott Observatory, Tucson MPS 259298
2008 10 20.26295 01 53 25.67 +04 47 16.2 20.6 R 683 – Goodricke-Pigott Observatory, Tucson MPS 260625
2008 10 20.27634 01 53 24.92 +04 47 15.8 20.5 R 683 – Goodricke-Pigott Observatory, Tucson MPS 260625
2008 10 20.28975 01 53 24.10 +04 47 16.3 20.3 R 683 – Goodricke-Pigott Observatory, Tucson MPS 260625
2008 10 21.25957 01 52 28.65 +04 46 30.3 20.1 R 683 – Goodricke-Pigott Observatory, Tucson MPS 260625
2008 10 21.27297 01 52 27.95 +04 46 29.5 20.7 R 683 – Goodricke-Pigott Observatory, Tucson MPS 260625
2008 10 23.33548 01 50 29.54 +04 45 01.7 19.5 V G96 – Mt. Lemmon Survey MPS 260625
2008 10 23.34265 01 50 29.11 +04 45 01.2 19.5 V G96 – Mt. Lemmon Survey MPS 260625
2008 10 23.34978 01 50 28.71 +04 45 01.1 18.9 V G96 – Mt. Lemmon Survey MPS 260625
2008 10 23.35691 01 50 28.28 +04 45 00.9 19.4 V G96 – Mt. Lemmon Survey MPS 260625
2008 10 24.24940 01 49 37.32 +04 44 27.2 20.1 R 683 – Goodricke-Pigott Observatory, Tucson MPS 261596
2008 10 24.25850 01 49 36.83 +04 44 26.9 18.7   704 – Lincoln Laboratory ETS, New Mexico MPS 261596
2008 10 24.26280 01 49 36.63 +04 44 28.3 19.7 R 683 – Goodricke-Pigott Observatory, Tucson MPS 261596
2008 10 24.26998 01 49 36.18 +04 44 27.8 19.5   704 – Lincoln Laboratory ETS, New Mexico MPS 261596
